Location: Daerah Kuala Lumpur
(3.1167°N, 101.6833°E)
Time: 13:16:13
(UTC+00:00)

CZ-4C R/B - Pass Details

Date: 13 November 2024
Orbit: 515 x 1473 km, 63.4° (Epoch: 02 December)

Event Time Altitude Azimuth Distance (km) Brightness Sun altitude
Rises 13:08:56 0° 342° (NNW) 4,354 5.9 -32.1°
Reaches altitude 10° 13:11:44 10° 344° (NNW) 3,462 5.3 -32.7°
Enters shadow 13:16:02 34° 352° (N) 2,210 4.1 -33.8°
Exits shadow 13:31:07 - 152° (SSE) 4,041 5.6 -37.3°
Sets 13:32:23 0° 152° (SSE) 4,449 5.9 -37.6°
